Regional Weather Roundup
Issued by NWS Grand Forks, ND

Home | Current Version | Previous Version | Text Only | Print | Product List | Glossary Off
Versions: 1 2 3 4 5 6 7 8 9 10 11 12 13 14 15 16 17 18 19 20 21 22 23 24 25 26 27 28 29 30 31 32 33 34 35 36 37 38 39 40 41 42 43 44 45 46 47 48 49 50

000
ASUS43 KFGF 181031
RWRFGF
PRAIRIE TO PINES  WEATHER ROUNDUP
NATIONAL WEATHER SERVICE EASTERN NORTH DAKOTA/GRAND FORKS ND
500 AM CDT FRI APR 18 2014

 **SATELLITE DATA USED TO AUGMENT SKY COVER AT AUTOMATED STATIONS**
 *****  WEATHER ACROSS EASTERN NORTH DAKOTA  *****

CITY           SKY/WX    TMP DP  RH WIND       PRES   REMARKS
GRAND FORKS    CLOUDY    31  18  58 SE6       30.28S
GRAND FRKS AFB CLOUDY    30  21  69 SE3       30.28S
GRAND FRKS NWS   N/A     32 N/A N/A SE9         N/A  WCI  24
DEVILS LAKE    CLOUDY    32  16  51 SE14      30.20F WCI  22
FARGO          CLOUDY    34  23  64 S7        30.28R
WAHPETON ARPT  CLOUDY    32  25  74 E6        30.28S
$$

 ***** WEATHER ACROSS CENTRAL AND WESTERN NORTH DAKOTA  *****

CITY           SKY/WX    TMP DP  RH WIND       PRES   REMARKS
BISMARCK       FAIR      34  22  61 E13       30.07F WCI  25
MINOT          FAIR      30  21  69 E15       30.08F WCI  19
JAMESTOWN      CLOUDY    32  20  61 E15       30.18F WCI  22
MINOT AFB      FAIR      30  22  74 SE14      30.08F WCI  19
GARRISON         N/A     32  24  72 E13       30.04F WCI  22
WILLISTON      CLOUDY    38  26  62 SE10      29.91F
DICKINSON      MOCLDY    31  22  69 SE20      29.89F WCI  19
HETTINGER      FAIR      31  23  72 E16       29.90F WCI  20
$$

 *****  OTHER AIRPORT OBSERVATIONS IN OUR AREA  *****

CITY           SKY/WX    TMP DP  RH WIND       PRES   REMARKS
WALHALLA       FAIR      25  19  80 E3        30.28F
GRAFTON AIRPOR FAIR      27  25  93 E6        30.29S WCI  20
VALLEY CITY AR CLOUDY    32  19  59 E12       30.22S WCI  23
CANDO          CLOUDY    30  18  59 SE14      30.20F WCI  20
CAVALIER APRT  FAIR      27  21  80 E3        30.29S
GWINNER        MOSUNNY   32  23  69 E10       30.23F WCI  24
SHEYENNE NWR     N/A     33  24  68 E6        29.95S
ROLLA          CLOUDY    27  16  63 SE16G22   30.19S WCI  14
 ***** THE ABOVE OBSERVATIONS ARE NON NWS ARE NOT QUALITY
       CONTROLLED AND MAY MIS-REPORT RAIN FOR SNOW...
$$

  *****  WEATHER ACROSS NORTHERN MINNESOTA  *****

CITY           SKY/WX    TMP DP  RH WIND       PRES   REMARKS
FLAG ISLAND    FAIR      18  12  79 CALM      30.32S
WARROAD        FAIR      19  10  68 CALM      30.33R
ROSEAU         FAIR      25  14  63 E3        30.31S
HALLOCK        CLOUDY    27  19  74 E7        30.30S WCI  19
THF RVR FALLS  FAIR      28  12  50 E7        30.30S WCI  21
BAUDETTE       FAIR      20  16  84 CALM      30.32R
WASKISH        FAIR      18  16  93 CALM      30.31S
CROOKSTON      FAIR      30  18  59 SE8       30.30S WCI  23
$$
  *****  WEATHER ACROSS CENTRAL AND WEST MINNESOTA  *****

CITY           SKY/WX    TMP DP  RH WIND       PRES   REMARKS
FOSSTON        FAIR      23  12  63 CALM      30.29R
BEMIDJI        FAIR      20  17  86 E6        30.29S WCI  12
PARK RAPIDS    FAIR      28  19  69 CALM      30.27S
ELBOW LAKE     CLOUDY    32  25  74 SE6       30.27F
WADENA         CLOUDY    27  19  74 CALM      30.28R
DETROIT LAKES  FAIR      30  21  69 S3        30.29R
MOORHEAD       CLOUDY    34  27  75 S2        30.29S
FERGUS FALLS   CLOUDY    34  21  60 S6        30.27S
MORRIS MN      FAIR      30  27  86 E6        30.27S WCI  24
STAPLES        CLOUDY    27  19  74 CALM      30.28S
$$
  *****  WEATHER ELSEWHERE ACROSS MINNESOTA  *****

CITY           SKY/WX    TMP DP  RH WIND       PRES   REMARKS
DULUTH         MOCLDY    22  17  81 CALM      30.31R
INTRNTL FALLS  FAIR      18  14  84 CALM      30.32R
ELY            FAIR      10   9  92 CALM      30.32R
CLOQUET        CLOUDY    18  16  93 CALM      30.32R
WHEATON        FAIR      30  27  86 E7        30.29S WCI  23
BRAINERD       CLOUDY    34  22  61 CALM      30.29S
HIBBING        FAIR      17  14  88 NW3       30.32R
ALEXANDRIA     CLOUDY    31  24  75 CALM      30.29S
SAINT CLOUD    MOCLDY    22  19  89 CALM      30.31S
MINNEAPOLIS    FAIR      28  25  88 CALM      30.33S FOG
$$

  *****  WEATHER ACROSS SOUTH DAKOTA  *****

CITY           SKY/WX    TMP DP  RH WIND       PRES   REMARKS
SIOUX FALLS    FAIR      33  28  81 SE12      30.23F WCI  24
BROOKINGS      NOT AVBL
WATERTOWN      CLOUDY    33  12  41 SE10      30.20F WCI  25
HURON          FAIR      34  27  75 SE15      30.14F WCI  24
SISSETON         N/A     32  26  78 S7        30.25S
ABERDEEN       CLOUDY    35  19  52 E13       30.16F
MITCHELL       FAIR      34  28  79 SE17      30.17F WCI  23
PIERRE         FAIR      36  26  67 E12       29.99F
MOBRIDGE       CLOUDY    36  25  64 SE17      30.00F
RAPID CITY     FAIR      33  31  92 CALM      29.85F
$$

  *****  SOME WEATHER IN NEARBY STATES *****

CITY           SKY/WX    TMP DP  RH WIND       PRES   REMARKS
GLASGOW MT     CLOUDY    41  35  79 E18       29.73F
GREAT FALLS MT LGT RAIN  45  43  93 S12       29.66F
CHEYENNE WY    FAIR      38  28  67 SW5       29.99S
SCOTTSBLUFF NE FAIR      41  34  76 SE10      29.92S
OMAHA NE       FAIR      32  27  81 CALM      30.27R
DES MOINES IA  FAIR      35  29  78 E5        30.31R
DAVENPORT IA   FAIR      31  28  89 N5        30.32R FOG
CHICAGO IL     FAIR      42  34  73 N7        30.26R
EAU CLAIRE WI  FAIR      23  19  85 CALM      30.34R
LA CROSSE WI   FAIR      29  26  89 N5        30.34R WCI  24
$$

  *****  SOME NATIONAL WEATHER *****

CITY           SKY/WX    TMP DP  RH WIND       PRES   REMARKS
LA GUARDIA NY  MOCLDY    36  25  64 NE13      30.53R
RALEIGH NC     MOCLDY    39  35  86 N5        30.43R
ATLANTA GA     CLOUDY    55  38  52 E12       30.28R
NEW ORLEANS LA LGT RAIN  63  60  90 NE9       30.07R
OKLAHOMA CITY  FAIR      45  38  76 N5        30.24R
ALBUQUERQUE NM FAIR      49  26  41 N9        30.14F
SALT LAKE CITY MOCLDY    65  25  22 S20G29    29.81S
LOS ANGELES CA CLOUDY    62  52  69 E9        29.87F
BOISE ID       FAIR      49  39  68 NW3       29.91R
SEATTLE WA     MOCLDY    45  39  79 SW16G22   29.97R
$$

*** WEATHER ACROSS MANITOBA...SASKATCHEWAN AND ONTARIO ***
                ***ONTARIO***

CITY           SKY/WX    TMP DP  RH WIND       PRES   REMARKS
GERALDTON      LGT SNOW  25  25 100 N5        30.26R WCI  19
THUNDER BAY    MOCLDY    23  21  93 SW6       30.32R WCI  16
SIOUX LOOKOUT  CLEAR      9   5  85 CALM      30.32R
TORONTO        MOCLDY    43  30  61 SE3       30.26F
BIG TROUT LK   CLEAR      5   0  78 W5        30.32R WCI  -4
PICKLE LAKE    NOT AVBL
DRYDEN         CLEAR     19  18  93 SW2       30.32R
KENORA         CLEAR     21   1  42 SE3       30.32R
$$
                *** MANITOBA***

CITY           SKY/WX    TMP DP  RH WIND       PRES   REMARKS
BRANDON        CLOUDY    28  19  69 E13       30.23F WCI  18
DAUPHIN        PTCLDY    25  14  63 E9        30.23F WCI  15
ISLAND LAKE    CLEAR     10   7  85 CALM      30.36R
PILOT MOUND      N/A     28  18  64 E13         N/A  WCI  18
THE PAS        PTCLDY    14   5  67 SE3       30.25F
THOMPSON       CLEAR      1  -2  85 W3        30.32S
WINNIPEG       CLEAR     23   9  54 E5        30.32F WCI  17
LYNN LAKE      CLEAR      1  -6  71 N3        30.25F
CHURCHILL      MOCLDY     7   3  85 W5        30.40R WCI  -2
GILLAM         PTCLDY     7   3  85 SW2       30.34S
$$
                ***SASKATCHEWAN***

CITY           SKY/WX    TMP DP  RH WIND       PRES   REMARKS
ESTEVAN        CLOUDY    32  25  74 SE18G25   29.99F WCI  20
KINDERSLEY     CLOUDY    36  34  93 E15       29.68F
LLOYDMINSTER   CLOUDY    30  28  93 SE18G25   29.74F WCI  18
PRINCE ALBERT  CLOUDY    27  18  69 E14G20    30.00F WCI  15
REGINA         CLOUDY    34  23  64 SE23G32   29.91F WCI  22
YORKTON        CLEAR     27  19  74 SE17      30.09F WCI  14
N. BATTLEFORD  LGT SNOW  30  30 100 E23G30    29.83S WCI  17
LA RONGE       CLEAR     23   9  54 E10       30.10F WCI  12
SASKATOON      FLURRIES  32  27  80 SE22G31   29.87F WCI  19
SWIFT CURRENT  CLOUDY    36  32  87 SE17G23   29.69F
$$
NOTE: THESE ARE AUTOMATED STATIONS WITH LIMITED QUALITY CONTROL
      "FAIR" INDICATES FEW OR NO CLOUDS BELOW 12,000 FEET WITH NO
      SIGNIFICANT WEATHER AND/OR OBSTRUCTIONS TO VISIBILITY.
      SKY/WX - SKY CONDITION AND SIGNIFICANT WEATHER.
      TMP - AIR TEMPERATURE.    DP   - DEWPOINT TEMPERATURE.
      RH  - RELATIVE HUMIDITY.  PRES - PRESSURE.
      HX  - HEAT INDEX.         WCI  - WIND CHILL INDEX.
$



USA.gov is the U.S. government's official web portal to all federal, state and local government web resources and services.